Weather History for Cecil Field, FL

Change the Weather History Date:

Sunday, March 31, 2013

  Actual Average (KJAX) Record (KJAX)
Temperature  
Mean Temperature 62 °F 64 °F  
Max Temperature 78 °F 76 °F 88 °F (1954)
Min Temperature 46 °F 52 °F 32 °F (1964)
Degree Days  
Heating Degree Days 3 3  
Month to date heating degree days 156  
Since 1 July heating degree days 1289  
Cooling Degree Days 0 2  
Month to date cooling degree days 54  
Year to date cooling degree days 83  
Growing Degree Days 12 (Base 50)    
Moisture  
Dew Point 49 °F    
Average Humidity 67    
Maximum Humidity 87    
Minimum Humidity 42    
Precipitation  
Precipitation 0.00 in 0.12 in 4.31 in (1948)
Month to date precipitation 3.95  
Year to date precipitation 10.44  
Snow  
Snow 0.00 in 0.00 in 0.00 in (2002)
Month to date snowfall T  
Since 1 July snowfall T  
Snow Depth -    
Sea Level Pressure  
Sea Level Pressure 30.08 in    
Wind  
Wind Speed 4 mph (SSW)    
Max Wind Speed 18 mph    
Max Gust Speed 28 mph    
Visibility 10 miles    
Events      
T = Trace of Precipitation, MM = Missing Value Source: NWS Daily Summary

Daily Weather History Graph

Daily Weather History Graph

Search for Another Location

Airport:

Trip Planner

Search our weather history database for the weather conditions in past years. The results will help you decide how hot, cold, wet, or windy it might be!

Date:

Astronomy

Mar. 31, 2013 Rise Set
Actual Time 7:17 AM EDT 7:45 PM EDT
Civil Twilight 6:53 AM EDT 8:10 PM EDT
Nautical Twilight 6:25 AM EDT 8:38 PM EDT
Astronomical Twilight 5:56 AM EDT 9:06 PM EDT
Moon No Moon Rise 10:22 AM EDT (3/31)
Length of Visible Light 13h 16m
Length of Day
12h 28m
Waning Gibbous, 78% of the Moon is Illuminated
Mar 31
Waning Gibbous
Apr 3
Last Quarter
Apr 10
New
Apr 18
First Quarter
Apr 25
Full

Hourly Weather History & Observations

Time (EDT) Temp. Dew Point Humidity Pressure Visibility Wind Dir Wind Speed Gust Speed Precip Events Conditions
12:15 AM 57.2 °F 41.0 °F 55% 30.15 in 10.0 mi Calm Calm - N/A   Clear
12:35 AM 57.2 °F 42.8 °F 59% 30.15 in 10.0 mi Calm Calm - N/A   Clear
12:55 AM 57.2 °F 42.8 °F 59% 30.14 in 10.0 mi Calm Calm - N/A   Clear
1:15 AM 53.6 °F 44.6 °F 72% 30.13 in 10.0 mi Calm Calm - N/A   Clear
1:35 AM 53.6 °F 44.6 °F 72% 30.13 in 10.0 mi Calm Calm - N/A   Clear
1:55 AM 50.0 °F 44.6 °F 82% 30.13 in 10.0 mi Calm Calm - N/A   Clear
2:15 AM 50.0 °F 42.8 °F 76% 30.13 in 10.0 mi Calm Calm - N/A   Clear
2:35 AM 48.2 °F 42.8 °F 82% 30.12 in 10.0 mi Calm Calm - N/A   Clear
2:55 AM 48.2 °F 42.8 °F 82% 30.13 in 10.0 mi Calm Calm - N/A   Clear
3:15 AM 50.0 °F 42.8 °F 76% 30.13 in 10.0 mi Calm Calm - N/A   Clear
3:35 AM 46.4 °F 42.8 °F 87% 30.12 in 10.0 mi Calm Calm - N/A   Clear
3:55 AM 46.4 °F 42.8 °F 87% 30.12 in 10.0 mi Calm Calm - N/A   Clear
4:15 AM 46.4 °F 42.8 °F 87% 30.12 in 10.0 mi Calm Calm - N/A   Clear
4:35 AM 48.2 °F 42.8 °F 82% 30.12 in 10.0 mi Calm Calm - N/A   Clear
4:55 AM 51.8 °F 44.6 °F 76% 30.12 in 10.0 mi SSE 4.6 mph - N/A   Clear
5:15 AM 51.8 °F 46.4 °F 82% 30.12 in 10.0 mi South 4.6 mph - N/A   Clear
5:35 AM 53.6 °F 46.4 °F 77% 30.12 in 10.0 mi South 3.5 mph - N/A   Clear
5:55 AM 53.6 °F 46.4 °F 77% 30.13 in 10.0 mi South 4.6 mph - N/A   Mostly Cloudy
6:15 AM 53.6 °F 48.2 °F 82% 30.13 in 10.0 mi SSE 5.8 mph - N/A   Mostly Cloudy
6:35 AM 55.4 °F 48.2 °F 77% 30.13 in 10.0 mi South 5.8 mph - N/A   Mostly Cloudy
7:50 AM 55.4 °F 50.0 °F 82% 30.12 in 10.0 mi SSW 11.5 mph - N/A   Scattered Clouds
8:50 AM 59.0 °F 50.0 °F 72% 30.13 in 10.0 mi South 9.2 mph - N/A   Scattered Clouds
9:50 AM 68.0 °F 50.0 °F 52% 30.13 in 10.0 mi SW 11.5 mph - N/A   Scattered Clouds
10:50 AM 71.6 °F 48.2 °F 43% 30.12 in 10.0 mi SW 18.4 mph - N/A   Scattered Clouds
11:50 AM 73.4 °F 53.6 °F 50% 30.11 in 10.0 mi SW 16.1 mph 27.6 mph N/A   Partly Cloudy
12:50 PM 77.0 °F 53.6 °F 44% 30.09 in 10.0 mi SW 17.3 mph 24.2 mph N/A   Partly Cloudy
1:50 PM 77.0 °F 53.6 °F 44% 30.07 in 10.0 mi SSW 11.5 mph - N/A   Scattered Clouds
2:50 PM 77.0 °F 53.6 °F 44% 30.03 in 10.0 mi SW 11.5 mph 19.6 mph N/A   Partly Cloudy
3:50 PM 78.8 °F 53.6 °F 42% 30.01 in 10.0 mi South 11.5 mph - N/A   Mostly Cloudy
4:50 PM 78.8 °F 53.6 °F 42% 30.00 in 10.0 mi SW 11.5 mph - N/A   Scattered Clouds
7:50 PM 71.6 °F 51.8 °F 50% 29.99 in 10.0 mi SSW 8.1 mph - N/A   Clear
8:15 PM 69.8 °F 50.0 °F 49% 29.99 in 10.0 mi SSW 9.2 mph - N/A   Clear
8:35 PM 68.0 °F 50.0 °F 52% 29.99 in 10.0 mi SSW 6.9 mph - N/A   Clear
8:55 PM 66.2 °F 50.0 °F 56% 29.99 in 10.0 mi SSW 4.6 mph - N/A   Clear
9:15 PM 66.2 °F 50.0 °F 56% 29.99 in 10.0 mi Calm Calm - N/A   Clear
9:35 PM 64.4 °F 50.0 °F 59% 30.00 in 10.0 mi SSW 8.1 mph - N/A   Clear
9:55 PM 64.4 °F 51.8 °F 64% 30.01 in 10.0 mi SSW 10.4 mph - N/A   Clear
10:15 PM 64.4 °F 53.6 °F 68% 30.01 in 10.0 mi SSW 9.2 mph - N/A   Clear
10:35 PM 64.4 °F 53.6 °F 68% 30.02 in 10.0 mi SSW 6.9 mph - N/A   Clear
10:55 PM 62.6 °F 55.4 °F 77% 30.02 in 10.0 mi SSW 5.8 mph - N/A   Clear
11:15 PM 62.6 °F 55.4 °F 77% 30.03 in 10.0 mi SSW 5.8 mph - N/A   Clear
11:35 PM 62.6 °F 55.4 °F 77% 30.03 in 10.0 mi SSW 6.9 mph - N/A   Clear
11:55 PM 62.6 °F 57.2 °F 82% 30.01 in 10.0 mi SSW 9.2 mph - N/A   Clear